This demonstration page uses our WeatherBlox Daily Observations layout. Learn more.

40.92945, -100.16068

Hourly Observations for January 30, 2018

Temp ( °F °C ) Dew Point ( °F °C ) Humidity (%) Winds ( mph kmh ) Pressure ( in mb ) Visibility ( mi km ) Precip ( " mm )
12:15 am 00:15 Clear 25 -4 19 -7.1 79 79 SE 6 9 30.42 1030 10 16.0934 0 0
12:35 am 00:35 Clear 24 -4.3 19 -7.3 80 80 SE 6 9 30.39 1029 10 16.0934 0 0
12:55 am 00:55 Clear 24 -4.5 19 -7.3 81 81 SSE 7 11 30.39 1029 10 16.0934 0 0
1:15 am 01:15 Clear 24 -4.6 19 -7.5 80 80 SE 6 9 30.36 1028 10 16.0934 0 0
1:35 am 01:35 Clear 24 -4.5 18 -7.6 79 79 SSE 7 11 30.36 1028 10 16.0934 0 0
1:55 am 01:55 Clear 24 -4.5 18 -7.7 79 79 SSE 7 11 30.36 1028 10 16.0934 0 0
2:15 am 02:15 Clear 24 -4.3 18 -7.8 77 77 SSE 8 13 30.33 1027 10 16.0934 0 0
2:35 am 02:35 Clear 24 -4.3 18 -7.8 77 77 SE 6 9 30.33 1027 10 16.0934 0 0
2:55 am 02:55 Clear 25 -4 19 -7.5 77 77 ESE 5 7 30.33 1027 10 16.0934 0 0
3:15 am 03:15 Clear 25 -4 19 -7.5 77 77 SE 3 6 30.33 1027 10 16.0934 0 0
3:35 am 03:35 Clear 26 -3.6 19 -7.1 77 77 SE 6 9 30.27 1025 10 16.0934 0 0
3:55 am 03:55 Clear 26 -3.2 19 -7 75 75 SE 6 9 30.24 1024 10 16.0934 0 0
4:15 am 04:15 Clear 27 -3 19 -7 74 74 SSE 8 13 30.24 1024 10 16.0934 0 0
4:35 am 04:35 Clear 27 -3 20 -6.7 76 76 SSE 8 13 30.21 1023 10 16.0934 0 0
4:55 am 04:55 Clear 27 -2.8 20 -6.5 76 76 S 7 11 30.21 1023 10 16.0934 0 0
5:15 am 05:15 Clear 27 -2.7 20 -6.5 75 75 S 9 15 30.18 1022 10 16.0934 0 0
5:35 am 05:35 Clear 26 -3.2 20 -6.7 77 77 SSE 7 11 30.18 1022 10 16.0934 0 0
5:55 am 05:55 Clear 26 -3.5 20 -6.8 78 78 S 9 15 30.18 1022 10 16.0934 0 0
6:15 am 06:15 Clear 26 -3.6 20 -6.9 78 78 S 5 7 30.18 1022 10 16.0934 0 0
6:35 am 06:35 Clear 24 -4.2 19 -7.2 80 80 S 6 9 30.18 1022 10 16.0934 0 0
6:55 am 06:55 Clear 24 -4.2 19 -7 81 81 SE 3 6 30.18 1022 10 16.0934 0 0
7:15 am 07:15 Clear 24 -4.5 19 -7.3 81 81 SSE 5 7 30.18 1022 10 16.0934 0 0
7:35 am 07:35 Clear 24 -4.6 19 -7.3 82 82 Calm 30.18 1022 10 16.0934 0 0
7:55 am 07:55 Sunny 24 -4.5 19 -7.3 81 81 SSE 7 11 30.15 1021 10 16.0934 0 0
8:15 am 08:15 Sunny 25 -4 19 -7 80 80 SSE 7 11 30.15 1021 10 16.0934 0 0
8:35 am 08:35 Sunny 26 -3.1 20 -6.5 78 78 S 7 11 30.15 1021 10 16.0934 0 0
8:55 am 08:55 Sunny 28 -2.2 21 -6.3 74 74 S 8 13 30.09 1019 10 16.0934 0 0
9:15 am 09:15 Sunny 29 -1.7 21 -6.1 72 72 S 5 7 30.09 1019 10 16.0934 0 0
9:35 am 09:35 Sunny 30 -1.2 22 -5.8 71 71 S 8 13 30.09 1019 10 16.0934 0 0
9:55 am 09:55 Sunny 31 -0.8 22 -5.8 69 69 SSW 6 9 30.09 1019 10 16.0934 0 0
10:15 am 10:15 Sunny 32 -0.2 22 -5.4 68 68 SSW 3 6 30.09 1019 10 16.0934 0 0
10:35 am 10:35 Sunny 32 0.1 23 -5.1 68 68 S 6 9 30.06 1018 10 16.0934 0 0
10:55 am 10:55 Sunny 34 1 24 -4.6 67 67 S 8 13 30 1016 10 16.0934 0 0
11:15 am 11:15 Sunny 35 1.7 24 -4.3 65 65 S 10 17 30 1016 10 16.0934 0 0
11:35 am 11:35 Sunny 37 2.7 25 -3.9 62 62 S 5 7 30 1016 10 16.0934 0 0
11:55 am 11:55 Sunny 38 3.2 25 -3.7 61 61 SSW 7 11 29.97 1015 10 16.0934 0 0
12:15 pm 12:15 Sunny 39 4.1 26 -3.3 59 59 WSW 5 7 29.94 1014 10 16.0934 0 0
12:35 pm 12:35 Sunny 40 4.5 27 -3 59 59 SW 10 17 29.91 1013 10 16.0934 0 0
12:55 pm 12:55 Sunny 41 4.9 27 -3 57 57 SSW 13 20 29.91 1013 10 16.0934 0 0
1:15 pm 13:15 Sunny 42 5.5 28 -2.5 57 57 S 10 17 29.85 1011 10 16.0934 0 0
1:35 pm 13:35 Sunny 43 6.3 28 -2.2 55 55 SW 12 19 29.85 1011 10 16.0934 0 0
1:55 pm 13:55 Sunny 44 6.6 29 -1.7 56 56 SSW 9 15 29.83 1010 10 16.0934 0 0
2:15 pm 14:15 Sunny 45 7.3 29 -1.5 54 54 SSW 10 17 29.83 1010 10 16.0934 0 0
2:35 pm 14:35 Sunny 46 7.8 29 -1.5 52 52 SSW 9 15 29.77 1008 10 16.0934 0 0
2:55 pm 14:55 Sunny 46 7.5 30 -1 55 55 SW 10 17 29.8 1009 10 16.0934 0 0
3:15 pm 15:15 Sunny 46 7.5 31 -0.8 56 56 SW 9 15 29.8 1009 10 16.0934 0 0
3:35 pm 15:35 Sunny 46 7.5 31 -0.5 57 57 SSW 10 17 29.8 1009 10 16.0934 0 0
3:55 pm 15:55 Sunny 46 7.8 31 -0.3 57 57 SSW 6 9 29.77 1008 10 16.0934 0 0
4:15 pm 16:15 Sunny 46 7.7 32 0 59 59 S 3 6 29.74 1007 10 16.0934 0 0
4:35 pm 16:35 Sunny 45 7.2 32 0 61 61 Calm 29.77 1008 10 16.0934 0 0
4:55 pm 16:55 Sunny 45 7.4 32 -0.2 59 59 WSW 5 7 29.74 1007 10 16.0934 0 0
5:15 pm 17:15 Sunny 45 7.1 31 -0.6 58 58 Calm 29.77 1008 10 16.0934 0 0
5:35 pm 17:35 Sunny 40 4.7 31 -0.5 69 69 Calm 29.77 1008 10 16.0934 0 0
5:55 pm 17:55 Clear 39 3.9 31 -0.7 72 72 Calm 29.8 1009 10 16.0934 0 0
6:15 pm 18:15 Clear 37 3 31 -0.8 76 76 Calm 29.8 1009 10 16.0934 0 0
6:35 pm 18:35 Clear 38 3.3 31 -0.6 76 76 Calm 29.8 1009 10 16.0934 0 0
6:55 pm 18:55 Clear 37 3 31 -0.5 78 78 Calm 29.77 1008 10 16.0934 0 0
7:15 pm 19:15 Clear 36 2.3 31 -0.6 81 81 Calm 29.77 1008 10 16.0934 0 0
7:35 pm 19:35 Clear 36 2.1 31 -0.7 82 82 Calm 29.77 1008 10 16.0934 0 0
7:55 pm 19:55 Clear 36 2.4 31 -0.5 81 81 Calm 29.77 1008 10 16.0934 0 0
8:15 pm 20:15 Clear 37 2.5 31 -0.7 80 80 Calm 29.77 1008 10 16.0934 0 0
8:35 pm 20:35 Clear 35 1.6 31 -0.8 84 84 NNE 3 6 29.77 1008 10 16.0934 0 0
8:55 pm 20:55 Clear 36 2.4 31 -0.3 83 83 NW 5 7 29.77 1008 10 16.0934 0 0
9:15 pm 21:15 Clear 37 2.6 31 -0.5 80 80 Calm 29.77 1008 10 16.0934 0 0
9:35 pm 21:35 Clear 37 2.5 32 -0.2 83 83 N 6 9 29.77 1008 10 16.0934 0 0
9:55 pm 21:55 Clear 36 2.2 31 -0.4 83 83 WSW 5 7 29.77 1008 10 16.0934 0 0
10:15 pm 22:15 Clear 36 2.4 32 -0.2 83 83 W 5 7 29.77 1008 10 16.0934 0 0
10:35 pm 22:35 Clear 35 1.9 31 -0.4 85 85 WSW 6 9 29.77 1008 10 16.0934 0 0
10:55 pm 22:55 Clear 36 2 31 -0.7 83 83 W 5 7 29.77 1008 10 16.0934 0 0
11:15 pm 23:15 Clear 35 1.8 30 -0.9 82 82 W 5 7 29.77 1008 10 16.0934 0 0
11:35 pm 23:35 Clear 37 2.7 31 -0.6 79 79 W 6 9 29.77 1008 10 16.0934 0 0
11:55 pm 23:55 Clear 36 2 31 -0.7 83 83 N 7 11 29.77 1008 10 16.0934 0 0

Powered by AerisWeather